Regional Weather Roundup
Issued by NWS Kansas City/Pleasant Hill, MO

Home | Current Version | Previous Version | Graphics & Text | Print | Product List | Glossary Off
Versions: 1 2 3 4 5 6 7 8 9 10 11 12 13 14 15 16 17 18 19 20 21 22 23 24 25 26 27

000
ASUS43 KEAX 231010
RWREAX

WEATHER ROUNDUP FOR EASTERN KANSAS AND NORTHWEST MISSOURI
NATIONAL WEATHER SERVICE KANSAS CITY/PLEASANT HILL MO
400 AM CST THU FEB 23 2017

KSZ040-057-103>105-MOZ028-029-037-043-231100-
...KANSAS CITY METROPOLITAN AREA...

CITY           SKY/WX    TMP DP  RH WIND       PRES   REMARKS
K.C. INTL      CLOUDY    50  40  68 NE15      29.69F
K.C. DOWNTOWN  CLOUDY    53  40  61 NE15      29.68F
LEES SUMMIT    CLOUDY    53  40  61 NE14      29.70F
OLATHE - IXD   CLOUDY    54  39  57 NE12      29.66F
OLATHE - OJC   CLOUDY    53  40  61 NE15G22   29.66F
LAWRENCE       CLOUDY    52  39  61 NE15G23   29.66F

$$

MOZ001>008-011>017-020>025-030>033-038>040-044>046-053-054-231100-
...NORTHERN AND CENTRAL MISSOURI...

CITY           SKY/WX    TMP DP  RH WIND       PRES   REMARKS
ST. JOSEPH     CLOUDY    49  40  71 NE12      29.71F
WARRENSBURG    CLOUDY    52  39  62 N14       29.68S
WHITEMAN AFB   MOCLDY    49  47  94 NE10      29.67F
CLINTON        PTCLDY    46  46 100 CALM      29.67F
SEDALIA        PTCLDY    50  49  96 NE7       29.69F
WARSAW         NOT AVBL
CHILLICOTHE      N/A     49  42  77 NE10G16   29.71F
KIRKSVILLE     CLOUDY    44  40  85 N9        29.74F

$$

MOZ041-047>049-056>058-063>065-088>090-097-231100-
...EASTERN AND SOUTHERN MISSOURI...

CITY           SKY/WX    TMP DP  RH WIND       PRES   REMARKS
ST. LOUIS INTL PTCLDY    53  49  86 CALM      29.73R
SPIRIT OF STL  CLEAR     51  51 100 CALM      29.72R
COLUMBIA       FOG       49  49 100 E7        29.70F VSB 1/2
JEFFERSON CITY FOG       44  43  96 E3        29.70F VSB 1/4
ROLLA          FOG       52  52 100 S6        29.69F VSB 1/2
OSAGE BEACH    MOCLDY    52  51  97 SE6       29.70S
SPRINGFIELD    FOG       53  53 100 SE10      29.67F VSB 1/2
BRANSON        FOG       52  52 100 SE7       29.71F VSB<1/4
JOPLIN         CLEAR     58  54  86 S12       29.64F
WEST PLAINS    FOG       52  51  97 S3        29.75S VSB 1/4

$$

IAZ060-094-KSZ022-034>040-054-083-096-NEZ052-066-093-231100-
...KANSAS...SOUTHEAST NEBRASKA AND IOWA...

CITY           SKY/WX    TMP DP  RH WIND       PRES   REMARKS
TOPEKA         CLOUDY    52  39  61 NE12G18   29.68R
MANHATTAN      CLOUDY    50  39  66 NE13      29.69S
EMPORIA        MOCLDY    54  39  57 NE12      29.63F
CHANUTE        CLEAR     50  44  80 E6        29.64R
WICHITA        PTCLDY    48  43  82 NE7       29.59F
OMAHA          CLOUDY    41  35  79 N21       29.79S WCI  32
LINCOLN        PTCLDY    41  37  86 N12       29.78F WCI  34
FALLS CITY     MOCLDY    45  38  76 NE6       29.72S
LAMONI         CLOUDY    42  39  89 N10       29.74S
DES MOINES     CLOUDY    41  37  86 N14       29.78S WCI  33

$$





USA.gov is the U.S. government's official web portal to all federal, state and local government web resources and services.